RH
13 14 14 13 12 12 13 15 17 18 19 19 20 20 21 21 22 22 23 24 25 26 27 28 28 27 25 23 20 19 18 18 18 18 18 19 19 19 19 19 19 18 18 18 18 18 19 18 18 18 19 20 19 20 20 20 20 21 23 26 30 32 32 31 31 32 31 30 27 26 28 28 28 29 29 29 29 28 28 32 38 41 44 47 51 51 52 56
15 16 16 15 14 13 13 13 14 15 16 17 18 18 18 18 19 19 19 19 20 21 23 25 28 30 32 32 30 26 22 20 19 18 18 18 18 18 18 18 18 18 18 18 18 19 19 19 19 19 19 19 19 19 19 19 20 21 25 29 32 33 32 31 31 31 31 31 30 28 28 28 29 29 30 30 31 32 31 30 31 34 37 40 47 51 56 63
15 16 17 17 16 15 14 14 13 14 14 16 17 18 18 18 17 17 17 18 20 21 23 24 26 28 31 33 34 34 31 27 23 22 21 21 21 21 21 21 21 22 22 23 23 23 25 26 26 25 25 25 24 23 22 21 22 24 27 31 33 32 32 32 32 32 31 31 32 31 30 29 29 29 30 31 32 33 33 33 32 34 36 40 48 53 64 76
15 16 18 20 19 18 16 14 14 14 15 16 17 17 16 16 17 19 23 26 29 31 32 33 33 32 32 33 34 36 37 36 33 29 27 26 26 27 27 27 27 28 29 30 30 30 32 33 34 34 33 34 33 31 30 28 27 28 29 31 32 31 33 35 34 35 35 34 34 33 32 31 30 28 29 29 30 32 34 35 36 37 38 42 48 52 65 81
15 18 22 25 25 22 19 15 13 13 14 14 15 16 17 20 24 28 32 34 35 36 38 38 39 38 38 38 38 38 39 42 41 39 36 33 31 30 30 30 30 31 32 33 34 35 37 38 40 41 41 42 41 39 38 36 35 34 33 31 32 32 33 34 35 37 37 37 37 36 35 34 32 29 28 29 30 32 34 37 39 40 41 46 50 51 66 83
16 21 28 34 34 30 25 20 16 15 16 18 20 23 26 30 33 34 35 35 34 34 35 37 38 39 40 41 42 42 43 45 44 44 45 42 40 38 37 36 35 35 35 36 37 38 40 42 44 45 46 47 45 45 44 42 42 40 38 37 35 34 34 33 35 37 38 39 40 40 38 36 35 32 30 32 33 33 35 38 40 41 43 49 54 57 68 81
17 23 34 41 41 37 30 25 22 23 25 27 29 31 34 35 34 33 32 32 32 31 32 33 35 38 41 43 45 46 48 47 46 46 47 48 48 48 48 47 47 47 46 45 44 45 46 47 48 49 51 52 50 49 49 48 47 45 43 41 40 37 36 34 34 35 37 41 42 43 42 40 38 36 35 35 35 34 34 36 38 40 42 46 54 59 65 72
16 24 36 43 42 38 31 28 28 30 32 33 34 33 32 31 30 29 29 29 29 30 30 31 33 36 40 45 49 52 51 49 49 48 48 49 50 50 52 53 55 56 56 56 55 55 56 56 56 56 58 59 57 55 55 53 49 47 45 43 41 38 36 34 33 33 34 39 43 44 43 42 40 38 37 38 37 36 35 36 39 42 43 46 51 58 64 67
15 22 35 41 40 36 31 31 32 34 35 34 32 29 28 28 28 28 28 29 30 30 32 32 33 35 38 43 48 54 56 55 54 53 51 51 52 52 54 55 57 59 61 61 62 63 64 65 63 62 63 62 61 60 59 55 50 48 47 44 41 39 38 36 34 32 32 36 39 39 38 38 38 38 39 39 39 38 37 39 43 47 49 52 54 59 64 67
15 20 32 39 37 34 33 33 34 35 35 32 28 28 29 30 30 30 30 30 29 30 31 32 33 33 35 37 41 48 52 54 57 60 60 60 59 59 59 60 61 63 65 65 66 67 67 67 66 65 65 63 62 61 60 58 54 52 50 48 46 45 42 39 36 33 32 35 34 34 33 32 33 35 37 38 39 40 40 41 44 48 52 56 59 62 66 68
15 18 28 37 36 34 33 34 35 36 33 30 28 30 33 32 31 29 27 26 25 24 25 26 26 27 29 29 32 38 42 46 52 56 61 66 67 67 66 66 66 67 69 69 69 69 69 68 69 68 67 65 64 63 63 62 59 57 54 50 47 45 43 40 38 36 36 38 37 36 36 35 34 33 34 35 38 42 44 44 44 46 50 55 59 63 65 67
15 16 24 33 36 34 34 35 36 35 32 30 32 34 34 32 29 26 23 20 18 16 16 16 17 17 18 19 22 27 31 37 43 48 54 61 66 68 68 68 69 71 73 73 73 74 74 74 74 73 71 69 68 67 66 64 61 57 52 46 42 43 43 43 42 41 43 45 44 43 43 43 41 39 37 37 39 41 43 44 44 45 47 51 54 57 60 62
14 15 19 29 35 35 35 37 37 35 33 33 35 35 33 30 26 22 17 13 11 9 9 9 9 9 10 11 14 16 19 23 29 34 41 48 56 61 65 67 68 70 73 75 78 81 82 81 80 80 78 75 73 70 66 62 58 52 46 42 41 41 42 43 44 43 45 48 48 46 46 45 44 42 40 39 38 37 37 37 39 40 40 42 43 45 47 50
13 15 17 24 33 35 36 38 39 37 35 35 37 35 31 27 23 17 11 8 7 6 7 8 9 9 10 13 14 16 18 20 21 24 28 36 46 57 64 68 69 70 74 78 84 88 88 86 85 83 81 78 75 69 63 58 53 48 44 40 36 35 37 39 40 38 39 44 45 43 44 42 38 35 32 30 28 25 23 24 26 28 30 32 33 34 35 37
12 14 16 20 30 36 37 38 40 39 37 37 38 34 29 25 18 11 7 6 6 6 7 9 10 11 12 15 17 18 21 24 26 27 30 34 43 58 69 73 75 76 78 80 85 87 87 87 84 81 79 75 70 65 58 51 46 43 41 37 33 31 31 31 31 30 31 35 37 36 36 33 28 26 22 19 18 17 16 16 16 18 21 24 25 27 28 29
10 14 15 18 26 36 38 38 40 41 39 39 38 33 27 21 13 8 6 5 6 7 9 11 12 12 14 18 21 21 23 28 32 34 39 43 49 61 74 80 82 82 80 80 80 80 79 77 75 73 68 62 58 54 47 41 37 35 34 32 30 28 27 26 26 26 27 27 28 29 28 26 23 21 19 18 19 19 18 17 17 16 17 19 21 22 23 24
10 13 15 17 24 35 40 39 41 42 41 40 37 31 25 17 9 6 5 5 7 9 11 12 13 15 19 23 25 24 27 33 38 42 47 54 62 69 77 85 87 85 82 79 76 72 68 63 57 54 50 45 41 38 33 30 28 28 28 27 27 26 25 24 26 27 26 27 27 27 27 24 23 23 23 23 22 20 19 19 19 20 20 21 23 26 28 29
9 12 15 17 22 35 41 40 42 43 42 40 35 29 21 13 7 6 5 7 10 11 13 14 17 22 23 26 29 28 32 42 49 55 61 66 73 77 81 86 89 86 80 73 67 59 52 46 39 34 32 30 27 24 22 23 25 25 24 25 26 25 24 25 29 30 28 29 30 30 30 28 26 28 28 25 22 21 21 21 20 20 20 20 22 25 26 27
9 12 16 17 22 35 43 43 43 44 44 40 32 27 18 10 7 6 6 9 12 13 16 18 23 26 26 30 35 35 41 50 55 60 68 73 77 79 82 85 84 76 64 52 46 40 33 30 27 24 22 20 18 16 16 19 24 24 23 26 29 28 27 27 32 35 33 32 33 32 32 30 30 30 28 26 25 25 24 21 19 19 20 21 23 25 27 29
10 12 16 18 22 35 46 46 46 46 44 38 31 26 16 8 7 6 8 13 13 15 18 21 25 28 30 35 38 39 44 50 53 57 65 70 75 76 74 72 65 52 42 33 29 26 21 18 18 18 17 16 15 14 14 19 23 23 25 29 29 29 30 30 33 38 38 36 36 34 32 31 31 30 28 28 27 28 27 23 21 23 26 28 31 34 36 39
11 13 16 19 21 34 48 50 49 49 45 37 31 25 14 7 7 7 11 15 15 18 21 22 26 32 37 37 34 36 42 47 51 56 59 60 61 57 49 46 40 31 27 23 20 18 16 14 13 13 14 14 14 15 15 18 22 23 26 28 25 23 27 29 35 43 44 41 40 37 34 34 33 32 33 34 36 36 33 29 27 29 33 37 41 45 46 47
12 13 16 19 20 32 48 52 51 51 45 37 32 24 12 7 7 7 12 18 18 20 22 22 27 34 39 37 32 33 39 47 52 52 49 44 39 31 24 25 25 22 22 20 17 15 12 13 12 10 12 13 12 14 16 18 23 25 23 23 22 22 27 31 38 46 48 44 39 35 34 36 36 36 40 44 49 48 44 40 36 34 37 42 46 52 55 55
13 14 18 21 20 29 47 53 52 52 45 37 33 23 11 7 7 8 12 19 21 23 23 24 28 34 38 37 31 27 29 37 45 44 36 28 22 15 12 14 16 17 20 20 20 18 15 14 14 12 14 15 14 15 17 20 26 30 27 24 27 32 37 39 41 43 39 30 26 26 30 33 34 38 45 50 53 53 53 52 48 43 42 45 50 57 63 66
13 16 22 24 20 25 43 54 54 53 46 38 34 24 11 7 8 8 11 17 22 26 26 26 28 32 34 32 26 22 21 22 27 28 21 17 13 11 11 11 12 14 15 17 21 25 25 22 20 18 16 18 24 25 24 25 26 29 34 35 38 42 39 33 28 26 23 19 21 26 31 34 36 44 52 58 61 58 57 57 57 55 53 53 56 61 68 75
14 19 25 27 23 22 37 55 56 53 47 38 34 26 12 7 8 9 10 13 20 26 27 25 26 27 27 23 18 17 18 17 17 16 13 12 12 12 13 12 13 15 16 17 21 31 36 33 30 26 22 25 31 29 23 23 23 21 26 33 41 45 35 22 20 21 24 29 34 38 42 45 46 51 59 66 71 70 69 68 70 70 67 66 66 70 77 80
15 20 25 28 26 20 31 52 57 53 48 40 36 29 13 7 8 9 10 11 19 26 27 25 22 22 21 16 13 14 15 16 16 14 11 11 11 12 13 14 15 17 19 19 24 41 47 43 37 29 30 33 26 20 17 17 20 21 21 23 28 35 32 26 30 35 40 46 51 52 52 52 51 54 60 66 71 73 74 76 78 79 75 73 73 76 78 76
16 19 25 29 29 21 24 44 55 55 52 43 38 32 15 7 9 10 8 11 20 25 27 26 20 17 16 12 12 13 12 14 14 13 13 11 10 11 12 13 14 17 22 20 24 43 49 42 37 31 38 41 22 15 17 16 22 28 27 24 24 30 36 39 45 50 52 56 57 56 55 54 56 60 64 67 71 75 80 84 83 79 75 72 71 70 68 64
16 18 24 31 34 27 20 33 53 59 55 47 42 34 17 8 10 10 9 13 22 26 27 25 18 13 12 11 13 13 12 13 13 12 14 12 10 10 10 11 13 16 23 22 22 38 46 40 37 39 49 47 24 16 18 17 28 38 37 37 38 42 46 49 54 57 58 60 61 62 61 60 60 62 68 74 81 87 94 95 86 77 72 67 63 60 55 49
15 16 23 31 37 36 25 25 44 59 57 50 44 36 20 10 9 10 10 15 21 24 24 20 14 12 11 11 13 13 14 14 14 14 13 13 12 11 9 10 13 16 22 25 22 31 46 48 50 56 59 48 28 20 19 22 39 50 48 49 51 51 50 51 53 53 53 56 66 76 78 74 67 66 74 79 80 80 79 75 68 64 63 59 57 56 49 42
15 15 21 28 33 40 36 25 33 52 60 53 46 39 25 12 10 10 11 14 19 23 22 16 12 12 11 12 13 13 14 14 15 15 14 14 14 13 10 9 13 15 19 25 22 23 37 49 61 73 70 51 32 25 28 38 52 55 50 53 57 55 53 51 48 47 48 51 64 80 84 82 78 77 86 85 76 67 58 55 56 56 56 56 55 53 49 45
15 15 20 26 26 33 42 35 28 40 57 58 49 42 31 16 10 11 11 14 19 22 21 16 12 12 12 13 14 14 14 15 16 16 15 16 15 14 12 9 11 13 16 23 25 25 31 41 58 70 63 46 32 28 34 46 54 52 47 49 52 50 47 46 45 47 47 47 57 67 67 72 77 78 85 87 76 64 58 59 61 59 58 58 55 53 50 47
16 15 19 25 23 23 36 44 34 31 47 59 53 44 37 23 11 11 12 13 18 22 22 19 14 14 14 14 15 15 15 15 17 18 17 17 18 16 14 11 10 11 14 19 26 32 34 39 54 61 50 40 36 31 29 34 39 41 40 41 43 44 43 44 47 44 41 43 51 54 53 61 69 67 74 84 79 68 64 68 70 67 65 63 60 56 53 48
20 20 21 24 21 17 25 42 44 33 36 53 58 49 42 32 17 12 12 12 15 20 24 23 17 14 15 15 16 17 17 17 17 19 19 19 20 18 15 13 11 10 10 13 23 34 36 38 49 54 48 43 41 36 29 25 26 28 32 34 37 41 41 40 39 33 31 39 46 45 45 51 56 58 66 79 81 77 77 80 80 76 74 73 69 64 59 54
23 23 22 21 18 15 19 35 48 43 34 44 57 55 47 38 25 15 12 12 13 17 23 25 21 17 16 16 17 18 19 19 19 20 21 21 22 20 17 15 12 10 8 10 20 33 38 39 42 44 45 44 41 37 31 26 24 27 33 36 38 37 34 31 30 27 28 36 40 41 41 43 48 56 63 69 73 78 85 90 88 81 79 80 78 71 65 59
21 20 18 17 16 15 18 28 45 51 40 37 51 58 52 44 34 21 13 11 13 16 20 23 23 21 18 16 17 18 19 20 20 21 22 23 24 23 20 17 14 10 8 10 16 26 38 44 42 39 38 38 36 34 33 34 34 35 39 42 41 39 36 35 34 32 32 33 35 38 39 40 45 51 55 59 64 71 81 89 86 79 78 80 78 74 69 64
20 19 17 16 16 18 21 27 41 54 49 38 43 56 57 50 42 30 16 11 13 14 16 20 23 24 22 18 16 17 19 20 21 22 22 23 25 25 22 19 16 12 9 10 13 19 30 43 48 46 45 45 45 46 49 51 50 46 47 48 46 43 41 40 38 35 32 31 33 37 40 42 44 46 52 57 59 62 68 72 67 62 64 67 68 66 63 61
27 26 24 25 28 29 30 31 40 54 56 45 39 50 60 56 48 39 24 12 11 13 14 17 22 25 25 23 19 17 18 19 20 22 23 23 26 26 24 20 17 14 11 10 14 16 20 32 44 50 56 61 62 62 61 59 57 54 51 49 46 43 40 40 41 41 40 39 39 41 43 42 41 45 49 49 48 48 50 49 46 43 43 46 47 46 43 40
38 39 38 42 46 47 45 42 44 55 62 54 41 45 60 62 54 47 34 18 11 12 14 15 20 23 26 26 23 19 19 18 20 22 22 23 26 27 25 21 17 15 12 11 14 15 13 20 29 35 43 52 56 57 58 58 58 55 52 49 46 45 43 44 49 52 52 49 46 45 45 44 45 49 52 50 49 49 48 45 42 39 36 35 34 33 30 27
49 50 50 55 61 63 62 55 52 59 66 61 47 44 57 66 58 49 43 30 15 11 13 15 18 21 24 28 26 22 21 21 21 22 22 23 25 27 26 23 18 15 14 13 13 13 12 15 19 22 25 29 34 39 44 48 47 43 44 45 46 48 48 49 53 56 55 54 55 54 52 54 58 60 59 58 55 53 52 47 43 40 37 34 31 29 27 24
62 64 65 71 77 78 74 65 61 67 73 68 55 45 52 66 64 52 48 40 23 13 13 15 16 19 23 25 25 23 23 24 23 22 23 24 24 26 27 25 21 17 15 15 14 12 12 13 14 17 18 18 20 24 27 30 29 29 33 36 41 47 50 53 56 58 61 65 65 59 49 49 58 60 57 55 50 48 47 43 41 38 35 32 28 23 19 15
78 80 81 85 87 84 78 73 72 78 80 74 62 49 47 61 67 60 54 48 32 18 13 14 15 18 21 21 21 22 24 25 24 22 22 23 24 26 28 27 24 20 16 15 15 13 11 11 12 14 16 16 17 19 21 23 24 26 29 32 37 44 49 55 60 65 71 71 67 56 42 41 53 56 51 48 44 42 42 40 37 33 29 24 18 12 9 7
87 90 89 88 87 84 80 79 81 85 87 81 70 55 46 54 67 68 60 53 42 28 16 13 14 17 20 21 19 20 22 23 23 22 21 22 24 25 28 28 24 21 18 16 16 14 11 10 10 11 13 13 14 16 18 21 23 26 29 32 36 40 44 48 53 61 64 60 59 55 44 45 57 59 52 46 41 40 39 36 32 27 21 15 9 5 5 4
90 91 89 87 86 84 82 83 85 88 91 88 78 62 49 49 61 67 63 57 51 40 24 14 13 16 19 20 19 18 20 21 20 22 22 21 21 22 25 28 26 22 19 17 15 14 12 10 10 10 11 11 12 13 14 16 17 20 24 27 29 31 32 33 38 45 47 49 54 51 44 50 58 54 47 42 39 39 37 31 26 21 14 8 4 4 5 4
86 87 87 86 86 85 85 87 88 90 94 92 84 70 54 46 51 61 66 63 59 52 37 21 14 16 18 20 19 18 19 19 19 22 23 21 19 18 21 26 27 23 20 18 16 14 12 11 9 9 10 10 11 11 11 13 14 14 17 19 22 24 25 27 32 36 37 43 48 42 39 46 46 39 38 39 39 40 33 25 20 14 8 5 5 6 6 5
82 82 83 83 83 84 86 87 89 92 95 93 87 76 60 48 47 56 65 68 66 61 50 33 20 16 16 18 21 21 20 20 20 21 23 24 21 16 16 21 24 24 21 19 18 16 15 13 10 10 10 9 10 10 10 13 13 14 15 17 20 21 23 26 27 29 31 33 37 37 35 34 32 30 34 37 36 33 26 19 14 9 7 6 6 7 6 5
79 77 77 79 80 81 83 83 83 89 95 94 89 80 67 55 48 50 61 69 71 66 58 46 30 19 15 17 21 23 22 20 20 20 23 25 24 18 15 16 18 20 21 19 19 18 17 16 13 10 10 9 9 10 10 12 12 13 15 16 18 19 21 23 22 23 24 22 28 32 27 25 28 28 30 31 28 23 19 15 12 10 9 9 9 9 8 7
79 75 74 76 78 79 79 78 77 83 91 93 90 82 74 66 56 50 55 67 74 72 65 54 40 26 19 17 19 22 23 22 20 20 22 24 24 20 17 15 14 16 17 18 18 18 17 17 14 11 10 10 9 10 11 12 13 14 15 15 17 18 21 23 21 21 19 16 22 25 20 22 27 25 27 29 24 20 19 16 14 14 13 13 12 11 9 8
81 77 73 73 76 79 79 77 76 80 87 90 89 84 79 75 69 58 53 58 69 74 71 62 50 37 25 19 18 21 23 23 21 20 20 22 23 21 19 17 14 14 14 15 16 15 15 16 15 13 11 10 9 9 11 13 13 14 15 15 17 18 20 23 22 21 18 16 18 18 17 21 23 22 26 26 22 22 21 19 18 16 15 16 15 14 12 11
83 79 72 70 74 79 82 79 76 82 88 89 89 89 85 82 80 72 59 54 59 69 73 69 61 49 36 24 20 21 22 22 23 22 20 21 22 20 19 19 18 15 14 14 14 13 13 14 15 14 12 11 10 10 11 13 14 15 15 15 16 18 19 21 22 22 20 18 16 15 16 18 18 20 23 22 21 22 21 21 20 18 18 18 17 17 15 14
82 76 68 65 66 68 75 78 76 84 94 93 92 96 95 92 89 83 72 60 56 62 71 74 71 62 49 34 23 21 23 23 24 24 22 21 22 21 19 20 20 18 15 14 14 13 12 13 13 13 13 13 11 10 11 12 14 15 15 14 14 16 18 20 22 23 22 21 19 17 17 16 15 17 18 18 19 19 19 20 20 18 19 19 18 18 17 17
75 70 62 57 52 50 60 70 72 80 93 96 96 98 99 99 97 93 86 76 66 64 66 72 77 73 62 47 31 23 23 24 25 27 26 24 22 21 21 20 20 20 19 16 16 16 14 14 13 12 13 14 11 10 11 12 14 16 15 14 14 15 17 19 21 23 23 23 22 21 19 17 15 15 15 15 15 15 16 17 17 17 18 18 18 18 17 17
62 58 51 44 41 39 48 60 66 76 87 93 94 94 95 96 96 95 95 90 82 77 73 75 80 80 73 61 45 32 26 24 25 27 28 28 26 23 23 22 21 21 21 20 20 20 17 16 15 14 14 15 11 9 10 12 13 15 14 14 15 15 16 18 20 23 24 24 24 23 22 21 19 17 16 16 16 15 15 15 15 16 16 16 17 16 16 17
Wind_Speed
19 18 16 15 14 14 13 13 13 13 13 14 14 14 14 15 15 15 15 16 16 16 17 17 18 18 19 19 19 20 20 20 20 21 21 21 22 22 22 22 22 22 22 23 23 22 23 23 24 24 24 24 24 24 24 24 24 23 22 20 19 19 20 22 25 26 27 26 25 26 27 27 26 26 25 24 23 23 25 26 27 26 26 25 23 22 22 22
19 18 16 15 14 14 14 14 14 14 14 14 15 15 15 15 15 15 16 16 16 17 17 18 19 19 20 20 21 21 22 21 21 21 21 21 22 22 22 22 22 22 22 22 22 22 22 22 23 23 23 23 23 23 23 23 23 23 22 21 20 22 23 24 25 26 27 28 27 27 28 28 28 27 26 25 25 25 26 27 28 28 27 26 23 22 22 22
19 18 16 15 15 15 15 15 15 15 15 15 15 15 15 15 15 15 16 16 17 17 18 19 19 20 20 21 21 22 23 24 23 23 23 22 22 22 23 23 23 23 23 23 22 22 22 22 22 22 22 23 23 22 23 22 22 22 22 22 22 23 24 24 25 26 28 29 29 28 28 29 29 28 28 27 27 28 28 29 30 30 30 27 24 22 22 22
19 18 16 16 16 16 16 16 15 15 15 15 15 15 15 15 15 16 16 17 17 17 18 19 20 21 21 21 22 22 23 24 25 25 25 25 25 25 25 25 25 25 25 24 24 24 24 23 23 23 23 23 23 23 23 23 23 23 23 23 23 23 23 24 25 26 27 28 29 29 29 30 30 29 30 30 29 30 30 30 30 30 30 28 25 24 22 22
20 18 17 17 17 16 16 16 15 15 15 15 15 15 15 15 15 16 16 16 17 17 18 18 19 20 21 21 22 21 22 22 23 24 25 26 26 26 26 27 27 27 27 26 26 25 25 24 24 24 24 24 24 24 24 24 24 24 24 24 24 24 24 25 25 26 27 28 29 30 30 31 31 29 30 31 31 31 31 31 30 30 29 28 28 27 24 24
20 19 18 18 17 16 16 15 15 15 15 15 15 15 15 15 15 15 16 16 17 17 17 18 18 19 19 20 20 21 21 21 22 22 23 24 25 26 26 27 27 27 27 27 26 26 25 25 24 24 24 24 24 24 24 24 23 23 24 25 25 25 25 25 26 26 27 28 29 30 31 31 31 29 30 32 33 32 32 32 31 30 30 30 29 28 27 26
20 20 19 18 17 16 16 16 16 16 16 16 15 15 14 15 15 16 16 17 17 18 18 18 18 18 19 19 19 19 20 21 21 21 21 22 24 25 25 26 26 26 26 26 26 25 25 25 25 24 23 23 24 24 23 22 21 22 24 24 24 24 25 25 25 26 27 28 29 30 31 30 30 29 31 33 34 34 33 32 33 32 32 32 31 31 30 29
21 21 20 18 16 16 16 16 16 16 15 15 14 14 15 16 17 17 18 18 18 19 19 19 19 19 19 19 18 19 20 20 20 20 20 20 21 22 23 23 24 24 24 24 24 24 23 24 24 23 22 22 23 23 22 21 20 22 23 23 23 23 23 23 24 25 27 28 29 30 31 31 31 30 31 33 34 34 33 34 35 35 34 34 33 33 33 32
22 22 20 18 16 16 16 16 16 15 14 14 14 15 16 17 18 18 18 19 19 20 20 20 20 20 20 20 19 19 20 20 20 21 20 20 20 21 21 21 21 21 22 22 22 21 21 21 22 22 21 22 23 23 22 20 20 22 22 22 21 21 21 22 23 24 26 28 29 31 32 31 31 30 30 32 33 33 34 35 37 37 36 36 36 36 35 34
23 23 21 19 17 17 17 16 15 14 14 14 15 16 18 19 19 20 20 20 21 21 21 20 21 21 22 22 22 21 21 21 21 22 22 22 22 22 22 22 22 21 21 21 21 20 20 20 21 21 21 22 23 23 21 20 20 20 20 19 19 19 20 21 22 23 25 27 29 30 31 30 29 29 30 31 32 33 34 35 37 38 38 38 37 38 37 37
23 23 22 20 18 17 17 16 14 14 15 15 16 17 20 21 21 21 21 22 22 22 21 21 21 22 23 24 24 23 23 23 23 23 23 24 24 24 24 24 23 22 21 21 21 21 21 21 21 22 22 23 23 22 21 20 19 20 18 17 16 17 19 20 20 21 23 26 29 30 31 30 28 29 30 31 32 33 34 35 36 37 38 39 39 39 39 39
23 24 23 21 19 18 17 15 14 15 16 16 17 19 21 22 22 22 23 23 23 23 22 22 22 23 24 24 25 25 24 24 24 25 25 24 24 24 25 25 24 24 23 22 22 22 22 22 22 23 23 23 23 22 21 20 19 18 16 15 16 17 18 19 20 23 24 26 29 31 30 29 29 29 30 30 31 32 33 35 35 37 38 39 40 40 41 41
23 24 24 22 20 19 18 16 15 16 16 17 18 21 22 23 23 24 24 23 23 23 22 22 22 23 24 24 23 24 24 24 25 25 25 24 23 23 24 24 24 24 24 23 23 22 22 22 22 23 23 23 23 22 22 20 18 16 16 17 18 19 20 21 22 25 25 26 29 30 29 28 28 27 27 27 28 29 30 31 33 35 37 38 39 40 41 42
23 24 24 24 22 20 18 16 16 16 17 18 20 22 23 24 25 24 24 23 23 22 22 22 22 22 22 21 21 21 21 22 23 23 23 22 21 21 22 22 23 23 23 23 22 22 22 22 22 22 22 23 23 22 21 20 18 17 19 20 20 19 20 21 23 25 26 26 28 28 27 26 26 25 25 24 24 24 25 26 27 30 32 34 36 37 38 39
23 24 25 24 23 21 19 17 16 17 17 19 21 23 24 25 25 24 23 23 23 23 22 21 20 20 19 18 17 17 17 17 18 18 18 18 18 19 19 20 21 21 20 20 19 19 20 20 20 21 21 21 21 21 20 19 18 19 21 21 20 19 20 21 23 25 26 26 27 26 25 25 25 23 22 20 19 19 20 20 21 23 25 28 30 32 33 35
23 24 25 25 24 22 20 18 17 17 18 19 22 23 24 25 24 23 23 23 23 21 20 18 18 17 16 15 15 15 15 15 15 15 14 14 15 15 15 16 16 17 18 17 16 16 16 17 18 19 19 19 20 20 20 19 19 20 21 20 18 17 18 20 22 23 23 23 24 23 22 21 21 19 18 17 16 15 15 16 17 19 21 22 24 26 27 29
23 24 25 25 24 23 21 20 18 18 18 19 21 23 24 24 24 23 23 22 21 19 17 16 15 14 14 14 14 15 16 16 15 14 14 13 12 11 12 13 13 13 14 14 15 14 14 15 16 17 17 18 18 19 19 18 19 20 20 18 16 16 16 17 19 19 19 19 19 19 18 18 18 16 15 15 14 13 13 13 14 15 16 17 18 19 20 21
23 24 25 25 24 23 22 21 20 19 19 20 21 22 24 24 23 23 23 21 18 17 16 15 14 14 15 15 15 16 16 16 15 13 13 12 10 9 9 10 10 10 10 10 11 12 12 14 15 16 18 17 17 18 18 18 18 19 18 16 15 15 15 16 16 16 16 16 16 17 17 17 17 15 14 13 12 12 12 12 12 12 11 11 12 13 14 15
23 24 25 25 25 23 21 21 20 19 19 20 21 23 24 23 23 23 21 19 17 16 15 14 13 14 15 16 16 15 15 14 13 12 12 11 9 7 7 7 7 7 7 6 7 8 10 12 14 15 16 15 16 17 17 17 17 17 16 15 15 16 16 16 16 15 15 16 17 18 18 18 17 16 15 14 13 12 12 12 12 11 10 10 11 12 13 15
23 23 24 25 24 23 22 21 20 20 20 20 21 23 23 22 22 21 19 17 16 15 15 13 13 14 15 15 15 15 13 13 12 12 11 10 8 7 6 6 5 4 4 4 5 5 7 10 11 12 12 13 15 16 16 16 16 16 16 16 17 17 17 17 16 15 15 16 17 18 18 18 17 16 16 15 15 15 15 15 14 14 13 12 13 14 15 16
23 23 24 24 24 23 22 21 20 20 20 20 21 23 22 21 21 19 17 16 15 15 14 13 13 14 14 14 15 14 13 12 11 10 10 9 9 8 8 6 4 3 2 3 4 5 6 8 8 9 10 11 12 13 13 14 15 15 16 17 17 17 18 18 17 17 17 16 17 16 16 16 15 15 16 16 16 17 17 17 16 16 16 16 17 17 18 18
22 23 23 24 24 22 21 21 20 19 19 20 21 22 22 21 20 18 16 15 15 14 14 13 12 13 13 13 14 13 12 11 9 9 9 9 10 10 9 7 5 3 3 4 4 5 6 7 7 8 9 10 11 12 13 13 15 16 16 16 17 17 18 18 18 19 19 18 17 15 14 15 15 15 17 17 18 18 19 19 19 19 19 20 21 21 22 22
22 22 23 24 23 22 21 20 20 19 19 19 21 21 21 20 18 17 15 15 15 15 14 14 13 12 12 11 12 12 11 10 9 9 9 10 10 10 10 8 7 6 5 5 4 6 6 7 8 10 11 11 12 12 13 13 15 16 17 16 16 17 17 18 18 18 18 17 15 14 14 16 16 16 17 18 19 20 21 21 22 22 22 23 24 25 26 26
22 22 23 24 23 22 21 20 20 19 19 19 20 21 20 19 18 17 15 15 15 15 14 14 13 11 11 10 11 11 11 11 10 9 9 10 10 10 9 8 8 7 7 6 4 5 6 7 9 11 12 12 12 12 13 13 14 15 17 17 17 17 16 16 15 16 15 15 14 14 17 18 18 19 19 19 20 21 22 23 24 25 26 27 28 28 29 31
22 23 23 23 23 22 21 21 20 19 18 19 20 21 20 18 17 16 15 15 15 14 13 13 12 10 10 10 10 10 10 10 10 10 10 10 10 10 9 8 7 7 7 6 5 5 7 8 10 12 12 11 11 12 13 14 14 14 15 16 17 17 16 14 14 14 14 14 15 16 19 22 21 21 22 20 20 21 22 23 24 26 27 28 29 30 31 33
22 23 23 23 22 22 21 21 20 19 19 19 20 21 20 18 17 16 15 15 15 14 11 11 11 10 10 10 10 10 10 10 10 10 10 10 10 10 10 8 8 7 6 5 4 5 8 10 12 14 12 10 11 12 13 14 13 13 13 13 15 16 16 15 13 13 14 15 17 18 20 23 22 22 21 20 19 20 20 22 23 24 25 26 28 29 30 30
21 22 22 22 22 21 21 21 20 20 19 19 20 21 19 17 16 16 15 15 15 13 11 10 10 10 9 10 11 10 10 10 10 10 11 11 10 10 10 9 9 8 6 5 5 5 7 11 13 14 12 12 11 11 11 11 11 12 12 12 13 14 15 15 14 15 16 17 19 20 21 23 23 22 21 19 19 19 19 20 22 23 24 25 25 25 25 24
21 21 22 22 22 21 21 21 21 20 19 19 19 20 19 17 16 15 15 14 14 12 10 9 9 9 9 10 10 10 11 11 10 10 10 11 11 10 9 9 10 9 7 6 6 5 7 10 12 12 13 13 11 10 10 10 10 11 11 12 12 12 13 14 14 15 16 18 19 20 21 23 23 21 19 17 16 16 16 18 20 22 23 23 23 21 21 21
20 21 21 22 22 21 21 21 20 20 19 18 18 19 18 17 15 14 14 14 12 11 9 8 8 9 9 10 10 10 10 11 10 10 10 11 11 11 10 9 9 9 8 6 7 7 9 11 11 12 13 12 11 10 9 9 10 10 11 12 12 12 12 13 14 15 16 15 16 18 20 21 22 19 17 14 13 13 15 16 17 18 20 21 21 20 20 20
20 20 21 22 22 21 21 21 20 19 18 18 18 18 18 17 15 14 14 13 12 10 8 7 8 9 9 10 9 10 10 11 11 11 11 12 11 11 10 9 9 9 8 7 7 7 10 12 11 12 12 11 10 9 8 8 8 9 11 12 13 13 14 14 15 16 17 15 15 17 18 19 20 17 13 13 12 14 14 14 15 16 18 19 20 20 21 21
19 20 21 22 22 21 21 21 20 19 18 17 17 18 18 17 15 13 13 13 12 10 8 7 8 8 9 10 10 10 11 11 11 11 12 12 12 11 10 9 9 9 8 7 7 6 8 11 11 12 12 10 9 8 7 7 7 10 12 13 14 14 14 15 15 15 16 15 14 17 18 18 17 13 10 13 15 15 14 14 16 17 18 19 20 20 21 22
19 20 21 22 22 22 22 22 20 19 18 17 17 17 17 17 15 14 12 11 11 10 9 7 7 8 9 9 9 10 10 11 11 11 11 12 13 13 12 11 10 9 9 8 6 4 6 8 11 13 11 10 9 8 8 8 9 11 12 13 14 14 15 16 15 15 15 14 15 17 18 18 17 14 12 14 16 16 15 16 17 18 19 20 21 21 22 23
21 21 21 22 22 22 23 23 21 20 18 17 16 16 17 17 16 14 12 11 10 9 9 8 8 8 8 9 9 9 9 10 11 11 11 12 13 14 13 12 11 11 10 8 6 4 4 6 10 13 12 11 11 10 9 9 10 10 10 11 13 14 15 15 15 16 15 14 16 18 19 19 17 16 15 15 16 16 16 17 18 19 20 22 23 24 24 24
22 22 22 22 22 22 23 24 22 20 19 17 16 16 16 16 17 15 13 11 10 9 9 9 8 8 8 8 8 8 9 10 10 11 11 12 13 14 13 11 11 12 11 9 6 4 3 5 9 11 11 11 11 11 10 10 9 9 9 10 12 13 15 15 16 16 16 16 17 18 19 19 16 16 16 15 15 16 17 18 19 21 22 23 25 26 27 27
23 22 22 22 22 22 23 24 23 21 19 18 16 15 16 16 16 16 14 12 10 9 9 9 9 9 8 8 7 7 9 10 10 10 11 12 13 14 13 11 11 12 11 10 6 4 3 4 7 9 10 11 12 11 10 10 10 10 10 11 13 14 15 17 18 18 18 18 19 18 19 18 17 16 16 15 15 16 17 19 20 21 23 24 26 27 29 30
24 23 23 23 23 23 23 23 23 22 20 18 16 15 15 15 16 16 15 13 11 9 9 9 9 9 8 8 7 7 8 9 10 10 10 11 12 13 13 12 10 11 11 10 7 4 3 4 6 8 9 11 11 10 9 9 10 11 12 13 15 15 17 18 19 19 20 20 19 18 17 17 17 16 15 15 16 16 18 19 20 22 24 25 26 27 29 30
24 25 24 24 24 25 24 24 23 22 21 19 17 16 15 15 15 16 15 14 12 10 10 9 9 9 8 8 7 6 6 8 9 10 10 10 11 12 13 11 9 10 11 9 7 5 3 3 5 7 9 10 10 9 8 9 10 11 12 14 15 16 17 18 20 20 19 19 18 17 17 17 17 16 15 16 17 17 18 20 21 23 25 26 27 28 30 31
26 26 27 27 26 26 26 24 23 21 20 19 17 16 15 15 14 15 15 15 13 11 10 10 9 8 8 8 7 7 6 7 9 11 10 10 11 12 13 11 8 8 9 9 8 6 4 2 3 5 8 9 9 9 9 9 10 12 13 14 15 16 18 19 20 20 19 19 19 18 18 19 18 17 17 17 17 18 19 21 22 24 26 27 29 30 32 33
27 28 28 28 28 27 26 25 23 21 19 17 16 16 16 15 14 13 14 15 14 12 11 10 9 8 8 8 8 7 6 6 8 10 10 10 10 11 12 11 8 7 8 8 7 7 5 3 2 3 5 7 7 9 10 10 12 12 13 14 15 16 18 19 19 20 19 20 21 20 19 18 17 17 17 18 19 19 20 20 22 23 25 26 28 29 31 31
27 28 29 28 27 26 25 24 23 21 19 16 15 15 15 15 15 14 13 14 14 13 11 10 8 7 7 8 8 7 6 6 7 8 10 10 10 10 10 10 9 7 7 7 7 7 6 5 3 3 4 5 6 7 8 10 11 12 12 13 14 16 18 19 19 19 20 21 22 22 19 16 15 17 18 19 19 19 19 19 21 22 23 24 25 27 27 25
26 27 27 26 25 24 22 22 22 20 18 16 14 14 14 15 15 15 14 14 14 13 12 10 8 7 7 8 7 6 5 5 6 7 8 9 10 10 10 9 8 7 6 6 7 6 6 5 4 3 4 5 5 6 6 7 9 10 11 13 15 17 18 19 19 19 20 21 22 21 19 15 14 16 17 17 17 16 17 18 20 21 22 22 23 22 20 19
24 25 24 23 21 20 19 20 20 20 18 17 15 14 14 14 14 14 14 14 13 13 13 12 10 8 8 8 7 6 5 5 5 5 6 7 8 10 10 9 8 8 7 6 6 6 6 5 5 4 4 5 5 5 6 6 7 8 10 12 14 16 17 18 18 18 19 20 20 20 18 14 14 16 16 15 14 14 16 18 19 20 21 21 20 17 16 16
22 22 21 20 19 19 19 19 20 20 19 17 16 15 14 14 14 14 14 13 12 13 13 12 11 9 9 8 7 6 6 5 5 5 5 6 7 9 10 10 9 8 8 7 7 7 6 5 5 5 5 6 6 7 7 7 8 8 9 11 13 14 16 17 18 18 19 18 18 18 16 13 14 15 15 14 14 14 16 18 18 19 19 19 17 15 14 15
21 21 21 20 19 19 19 19 19 20 19 18 16 15 15 15 14 14 15 14 12 12 13 13 12 11 10 9 8 7 7 6 5 5 5 6 7 8 9 10 10 9 8 8 8 7 7 6 5 6 6 7 7 7 8 8 9 9 10 11 12 13 14 16 17 18 18 17 17 16 15 13 13 13 13 13 13 14 17 17 17 18 18 17 15 14 14 14
21 20 20 20 19 18 18 18 19 19 19 18 17 15 15 16 15 14 14 14 14 13 13 13 13 12 11 10 9 8 8 7 7 6 5 6 7 8 9 10 11 10 9 9 9 8 8 7 7 6 7 7 8 8 8 8 9 9 10 10 11 12 13 14 15 16 16 15 14 15 14 12 13 12 11 11 13 15 16 16 16 17 17 16 14 13 13 13
22 21 20 19 18 17 17 18 19 19 18 17 17 15 16 16 15 14 15 15 15 15 14 13 13 12 11 10 10 9 9 8 8 8 7 6 7 8 8 9 10 10 9 9 9 9 9 9 9 8 8 8 9 8 8 8 9 9 9 10 11 11 11 13 14 14 14 13 12 13 12 11 12 12 10 12 15 15 15 15 15 16 16 15 14 13 13 13
24 23 22 21 19 19 18 19 19 18 17 16 16 16 16 17 15 15 16 16 16 16 15 14 13 12 12 11 11 10 10 10 9 9 9 7 7 8 8 8 9 10 10 9 10 10 10 10 11 10 10 10 10 9 8 9 10 11 11 11 11 10 10 12 13 13 13 12 10 12 12 11 12 12 11 13 15 15 14 14 15 16 16 15 14 13 13 14
26 26 24 23 22 21 19 18 18 18 17 16 15 15 17 18 17 16 17 17 17 16 15 14 13 13 13 12 12 12 12 11 10 10 10 9 8 8 8 8 7 9 10 10 10 11 11 11 12 12 12 12 11 10 9 10 11 12 13 12 11 10 10 11 13 13 13 12 11 12 12 13 13 12 12 14 15 15 14 15 16 17 16 15 15 14 13 14
28 28 27 27 25 23 20 18 17 18 16 15 15 15 16 18 19 18 18 18 18 17 16 15 14 14 13 13 13 13 13 13 12 11 11 11 10 10 9 7 7 8 10 10 10 11 11 11 12 14 14 14 13 11 10 11 12 13 15 14 12 12 12 12 12 13 13 13 13 13 12 14 13 12 13 15 15 14 15 15 17 17 16 16 15 14 13 14
30 30 30 29 27 25 23 20 18 17 16 14 14 15 16 18 19 19 19 19 19 18 17 16 15 15 14 13 14 14 14 14 14 13 12 12 12 12 11 9 7 7 9 10 10 11 12 12 12 14 15 16 15 13 11 12 12 14 16 16 14 13 13 12 13 13 13 13 14 14 13 13 13 12 14 16 15 15 15 16 17 17 17 16 16 15 14 14
31 31 31 30 28 26 24 21 19 18 16 15 15 15 15 16 17 18 18 20 20 20 18 17 16 16 15 14 14 14 15 16 15 14 14 13 13 14 13 12 10 9 8 9 10 11 12 12 13 14 15 17 17 15 13 12 12 14 17 18 16 15 14 13 13 14 14 14 14 14 13 13 12 13 15 16 15 15 15 16 17 17 17 16 15 15 14 14
31 31 30 29 27 25 23 21 19 18 17 16 16 17 17 17 17 17 18 19 20 21 21 19 17 17 17 16 15 16 16 17 16 16 15 15 14 15 15 14 13 12 11 10 10 12 12 13 13 13 14 17 19 17 16 14 14 15 17 17 17 17 15 14 14 14 15 15 14 14 14 12 11 13 15 16 15 14 15 16 17 17 16 16 15 15 15 14
Wind_Direction
351 349 347 345 343 341 338 334 330 327 325 322 320 318 316 313 311 310 307 305 302 300 297 294 291 287 284 280 277 274 272 269 268 266 265 265 264 263 262 262 260 259 257 257 257 256 255 255 254 254 254 254 255 255 256 257 257 258 257 255 251 245 240 236 236 236 238 239 238 240 245 247 246 243 245 245 241 237 235 234 235 235 235 235 236 239 243 247
349 348 346 343 341 339 336 332 328 326 324 322 320 318 316 313 311 309 307 304 301 298 296 293 290 288 285 282 279 276 272 270 268 266 264 264 263 262 262 261 261 260 260 259 258 257 256 256 256 256 256 256 256 257 258 259 259 259 256 252 247 244 241 239 238 237 237 238 236 237 241 246 247 244 245 245 242 238 235 235 238 239 240 240 240 241 244 247
348 347 346 343 341 339 337 333 329 325 323 320 319 318 315 313 311 309 307 304 302 299 296 293 289 286 284 282 280 278 274 271 269 267 265 264 262 262 261 261 261 261 261 260 260 259 259 259 259 259 258 258 258 259 259 259 259 257 254 250 246 245 245 243 241 240 239 238 237 234 235 241 246 247 246 246 244 243 240 239 241 242 242 242 242 243 246 248
349 347 346 344 342 341 338 336 331 326 322 319 317 317 315 314 313 311 309 307 305 302 299 295 291 287 284 282 281 279 276 273 270 268 267 266 265 263 262 263 263 263 262 262 261 261 261 260 260 260 260 260 260 260 258 257 256 254 252 250 247 247 247 245 243 242 240 240 239 236 234 236 242 247 248 248 247 246 245 244 243 243 243 241 241 243 245 249
349 348 346 344 343 342 340 338 334 329 324 320 319 319 318 317 316 315 314 312 311 309 306 301 296 292 288 285 282 280 278 275 271 268 267 266 266 265 264 264 263 263 263 263 262 261 261 261 260 259 259 259 258 258 257 257 255 253 253 251 248 247 246 246 245 243 242 241 240 238 236 234 237 243 248 249 248 247 246 245 244 244 243 241 241 241 241 244
349 348 346 344 342 340 340 338 336 332 327 324 324 324 323 323 322 320 318 316 314 312 309 306 303 299 295 289 284 281 278 276 273 270 268 266 266 265 265 265 264 263 262 262 262 261 260 259 258 257 256 256 255 256 256 257 256 255 255 254 250 248 247 247 247 245 244 242 239 238 237 236 236 239 244 246 247 248 248 247 246 245 244 241 240 240 239 241
349 348 346 343 341 339 338 338 335 331 328 327 329 331 330 327 325 322 320 317 314 312 310 308 306 303 299 294 289 283 279 277 275 273 270 268 266 265 264 264 264 263 262 260 259 258 257 256 255 254 253 252 253 253 253 254 254 254 254 254 253 252 250 250 249 247 246 243 240 239 239 239 239 239 239 241 245 249 251 251 251 250 248 245 242 241 241 242
350 349 347 345 342 339 338 336 333 331 330 332 336 337 334 330 327 324 321 318 315 312 309 308 306 303 299 296 292 286 281 279 277 274 271 269 267 265 263 262 261 261 260 259 257 255 253 252 252 250 249 248 249 249 249 249 249 249 251 252 253 253 253 253 251 250 249 245 242 241 240 240 240 240 240 240 243 247 250 252 252 252 251 249 246 244 244 246
351 350 348 346 343 340 338 337 334 333 335 337 340 339 336 332 328 325 322 318 315 311 308 306 303 300 297 294 291 286 284 281 279 277 274 271 268 265 263 260 259 258 257 256 254 252 249 247 247 246 244 243 244 244 243 244 245 246 248 250 252 253 254 254 254 254 252 247 244 243 242 241 240 240 241 242 243 245 247 249 249 250 250 249 248 246 245 247
352 351 349 347 344 341 340 339 338 338 338 339 340 340 336 332 328 325 322 319 315 311 308 305 302 298 295 292 289 287 285 283 280 278 276 273 270 267 265 263 260 258 257 255 253 250 247 244 243 242 241 241 242 242 241 240 242 244 246 249 252 254 255 256 255 254 252 248 247 246 246 244 241 240 240 241 242 244 245 246 247 249 250 249 249 248 247 247
351 351 350 347 343 342 342 341 341 339 338 338 338 337 335 332 329 327 325 322 317 314 311 307 303 298 294 291 290 288 286 283 280 277 274 272 271 269 267 265 263 260 257 255 253 251 249 245 243 241 240 241 242 242 241 239 240 242 244 247 251 253 253 253 251 250 248 247 248 247 246 245 242 239 238 238 240 242 244 245 247 249 250 251 251 251 250 250
350 350 349 347 343 341 342 341 338 337 337 337 337 336 334 332 330 328 326 323 320 318 315 310 305 299 295 293 292 290 287 284 281 277 273 271 271 271 269 266 263 260 256 255 253 251 249 246 244 242 241 242 243 242 242 240 238 239 240 241 244 245 244 242 241 240 240 242 246 247 247 247 244 242 240 240 240 241 243 244 246 247 249 251 252 253 254 255
348 349 349 347 343 340 341 339 334 335 337 337 337 336 334 332 331 330 328 326 323 321 318 314 309 304 301 299 297 294 291 287 284 280 278 275 272 270 269 267 264 261 258 256 253 249 247 245 243 242 242 242 242 241 241 239 237 234 233 232 235 238 238 237 236 238 238 240 246 250 252 253 252 250 248 247 245 244 244 244 245 247 249 250 251 253 255 257
346 347 348 347 343 340 339 336 331 332 336 337 337 336 334 333 332 331 330 329 327 325 322 319 315 312 310 309 306 302 298 294 290 288 286 283 277 270 266 264 263 261 258 256 254 250 247 246 244 243 242 241 240 239 238 236 235 234 233 233 233 235 236 237 239 242 243 242 247 253 257 259 260 259 257 256 254 252 249 246 244 245 248 251 253 254 256 258
345 345 346 346 344 340 337 334 330 330 332 335 336 336 335 334 333 333 333 332 330 330 328 327 325 323 324 325 322 318 313 308 303 301 297 291 285 278 271 266 264 262 260 257 254 252 251 249 246 244 242 240 239 238 234 231 231 233 237 239 237 235 236 238 239 242 243 244 248 253 256 260 262 263 264 263 259 256 253 250 247 245 247 250 253 255 258 260
343 344 345 345 344 340 336 334 331 329 330 333 335 336 336 335 335 336 336 335 335 337 338 339 339 339 344 346 341 337 333 327 322 317 312 306 299 291 284 277 272 268 264 261 256 254 253 251 249 246 243 240 239 236 231 227 229 234 239 242 242 241 241 241 238 237 239 243 248 252 253 257 260 263 264 262 258 255 252 252 250 250 251 254 256 259 262 265
342 342 343 344 344 341 337 333 332 330 330 333 335 336 337 337 338 339 339 339 342 347 350 350 353 355 359 0 355 352 349 342 336 330 325 322 317 308 297 289 282 275 269 264 258 253 250 248 247 244 240 237 236 234 230 227 230 235 239 242 244 244 244 242 237 233 235 238 243 248 248 251 255 257 256 254 253 251 248 249 252 256 260 262 265 268 270 273
341 342 342 342 343 342 338 334 332 331 332 335 336 337 339 339 341 342 343 345 351 357 359 1 4 5 5 4 1 359 354 345 338 335 331 328 325 316 302 292 285 278 271 264 257 250 245 242 240 236 234 234 234 233 232 229 230 233 236 237 235 236 237 235 233 231 233 234 237 240 238 242 247 247 247 248 249 249 248 250 254 259 263 267 271 272 274 277
341 341 341 341 341 342 339 335 332 332 334 336 338 340 341 341 344 345 347 350 357 3 5 8 9 7 5 2 358 358 353 344 339 340 336 331 325 318 311 304 297 293 289 278 261 251 244 240 237 234 233 233 233 232 232 229 228 229 229 224 220 224 228 229 229 228 230 231 231 232 231 234 238 238 241 244 246 250 254 256 257 259 263 269 274 276 276 277
340 340 340 340 341 341 340 336 332 333 335 337 340 342 342 344 346 349 351 353 0 6 8 8 6 6 4 358 355 356 355 349 346 346 343 339 335 337 343 339 337 336 321 295 273 257 246 240 237 235 231 229 230 231 231 227 224 222 217 214 216 221 225 229 228 226 228 228 229 234 235 237 238 238 242 247 250 255 260 263 266 271 275 279 281 282 280 279
338 339 340 340 340 340 339 336 334 333 335 338 341 342 343 346 348 351 354 355 360 6 6 4 4 5 1 354 354 359 0 357 355 354 352 353 358 4 8 3 1 355 316 286 277 265 254 248 238 233 228 223 222 222 222 222 219 216 213 215 222 227 228 231 227 223 226 227 228 237 241 241 241 243 248 256 261 265 268 269 272 278 285 290 292 291 288 284
336 338 339 339 340 340 339 336 335 334 336 338 341 343 344 347 349 353 356 356 357 0 360 0 2 2 358 353 356 4 8 7 6 5 2 7 14 12 8 2 351 329 302 290 282 274 266 255 237 224 218 215 213 208 209 212 213 217 221 223 228 233 234 234 229 223 224 227 230 237 241 241 245 250 256 261 266 270 272 273 276 280 286 290 292 294 293 290
334 337 339 339 339 340 339 337 336 335 336 338 341 344 345 347 350 354 356 356 355 354 354 359 2 1 358 355 357 5 12 14 15 14 9 10 12 6 1 355 345 332 316 304 294 282 271 257 236 220 211 207 207 203 203 208 212 219 228 232 234 238 237 234 230 227 228 232 238 245 250 253 258 262 263 264 265 267 269 271 273 277 281 284 286 289 290 290
331 335 338 338 338 339 339 338 337 336 336 337 341 345 346 348 350 353 355 355 355 350 350 359 3 1 358 358 359 4 11 16 16 16 12 9 4 355 351 346 337 328 317 314 302 282 272 256 237 227 220 209 203 203 202 208 216 222 227 232 236 240 241 239 237 238 241 246 253 260 265 268 271 273 273 271 267 265 265 266 268 271 274 277 279 282 283 285
328 332 337 337 337 339 339 338 337 336 336 338 343 346 347 348 348 352 354 353 353 350 350 357 1 0 0 1 4 7 10 11 11 13 11 6 356 345 340 334 325 319 310 307 298 283 276 257 237 234 230 209 198 202 202 204 212 218 223 225 230 238 243 246 249 253 257 262 267 269 271 271 272 273 275 276 273 269 266 266 268 270 271 273 276 278 280 280
326 329 334 336 337 338 338 337 337 337 337 340 346 346 346 347 346 350 355 352 351 350 350 356 359 359 1 4 6 9 12 10 5 7 6 0 350 339 333 324 316 313 302 287 274 272 269 252 236 232 224 200 194 203 204 203 208 216 223 225 227 234 242 249 254 260 264 268 270 271 271 271 271 272 275 277 277 275 273 272 271 270 270 272 274 276 277 278
324 326 332 335 336 337 337 337 338 338 339 342 346 345 344 346 346 348 354 352 348 348 350 354 356 357 2 6 4 5 11 11 5 3 0 356 349 339 332 322 314 311 301 276 251 247 248 240 230 223 211 198 198 206 207 209 214 221 226 229 231 235 242 248 253 260 264 267 269 271 272 273 274 275 278 279 278 277 274 271 268 267 266 268 270 273 276 279
321 323 329 334 335 336 336 338 338 338 339 341 345 344 343 346 346 347 352 351 346 346 348 350 352 356 5 8 3 1 5 6 5 4 360 355 349 344 339 328 317 313 306 283 256 235 223 225 221 212 203 200 205 210 212 217 222 224 224 226 230 235 241 245 248 254 261 264 268 270 270 272 273 274 277 281 280 275 268 260 257 257 258 261 266 271 274 276
318 320 326 332 335 336 335 336 336 336 337 339 343 343 342 345 346 347 352 352 346 344 346 346 351 0 5 5 5 4 2 1 1 3 2 355 350 350 348 335 323 315 310 294 268 235 212 216 217 208 203 204 209 218 225 229 226 221 219 219 223 232 241 248 254 260 264 267 274 276 273 273 274 274 273 273 270 262 255 251 252 255 259 264 268 269 270 271
315 317 323 329 333 334 333 332 332 334 335 337 341 342 343 345 344 347 353 352 345 343 344 346 355 1 0 360 6 7 2 360 0 1 359 353 350 353 350 340 330 321 313 301 285 252 220 215 212 208 209 208 212 225 237 241 227 214 214 216 220 230 240 250 257 263 267 271 278 278 275 275 279 281 268 254 253 254 255 258 262 266 269 271 270 267 268 270
312 313 318 325 329 332 331 329 330 333 334 336 337 339 343 345 343 347 353 350 345 342 341 345 352 355 354 357 4 5 1 360 3 3 355 348 349 352 351 347 340 329 319 309 299 271 232 218 205 202 209 209 215 227 235 236 221 211 213 218 224 231 239 248 255 260 264 270 273 273 274 274 278 283 262 243 249 257 265 270 272 272 271 270 268 267 269 272
309 310 314 320 324 329 330 327 327 330 332 334 333 336 343 345 342 347 351 346 345 343 337 337 340 342 345 353 2 3 359 359 5 6 355 347 350 353 353 353 350 343 332 321 306 272 239 221 199 195 203 211 219 225 225 225 222 217 219 224 231 237 245 251 256 260 265 271 272 272 274 272 272 275 262 252 256 265 273 275 274 273 271 270 271 272 273 273
307 308 310 315 319 325 328 326 325 327 330 331 330 332 340 343 343 346 345 341 344 342 335 329 325 324 330 343 358 1 357 358 4 5 357 351 353 356 356 356 358 355 347 336 316 278 242 212 194 193 201 213 223 226 226 228 231 231 233 236 239 244 249 253 256 261 266 269 268 269 269 268 271 273 268 263 264 268 272 272 273 274 271 271 273 273 273 272
305 306 308 311 314 319 324 325 324 324 326 328 328 330 335 340 343 343 338 336 340 340 333 325 317 314 318 330 346 352 350 354 360 1 357 354 356 358 357 355 359 360 357 352 334 301 254 202 194 196 202 215 226 230 232 234 237 241 242 244 247 252 258 261 263 266 269 267 265 265 266 269 273 273 272 273 272 270 269 268 270 273 271 269 270 270 270 270
303 305 306 308 310 314 318 321 322 321 322 324 326 327 330 337 342 340 335 333 335 333 327 321 316 314 311 313 327 340 345 348 351 354 355 353 356 359 356 355 359 0 0 2 354 323 279 217 207 209 211 220 232 236 237 239 240 242 243 247 253 259 265 269 270 271 271 269 267 266 268 273 276 276 278 281 279 274 269 267 269 271 270 268 268 270 271 273
302 303 305 306 307 309 311 315 318 318 317 319 322 324 326 332 337 338 334 330 330 325 320 319 316 315 310 305 313 330 343 344 342 347 353 352 354 356 356 356 359 1 3 7 6 346 297 235 222 225 225 228 236 241 239 239 242 246 248 251 256 261 266 270 272 274 274 274 274 273 274 277 280 283 286 283 278 272 268 269 271 271 269 269 270 272 275 277
299 301 302 303 304 304 306 310 313 315 313 314 319 322 323 326 331 334 331 328 326 321 317 319 317 316 312 307 312 325 338 339 335 337 345 350 351 353 355 356 358 1 6 11 14 5 328 256 231 229 230 234 240 246 245 241 242 247 250 255 259 264 269 273 277 279 279 279 278 278 280 283 287 290 287 280 277 274 272 271 272 273 273 273 274 275 276 277
297 299 300 301 302 302 302 304 308 310 309 309 314 317 319 320 322 327 329 327 325 320 317 318 317 315 312 309 313 324 333 334 331 332 339 345 348 351 353 352 355 3 5 9 15 12 358 310 258 241 241 246 250 255 255 250 249 252 256 261 266 270 273 276 279 281 282 281 281 281 283 288 292 291 286 282 281 280 277 276 276 277 277 276 277 277 277 277
295 297 299 300 300 299 298 299 302 305 304 303 306 311 314 313 311 317 326 327 323 319 317 316 315 313 307 304 310 322 331 330 329 332 336 339 343 349 352 348 347 360 2 3 11 10 7 1 323 278 266 265 261 260 259 259 261 263 266 269 272 274 276 279 280 282 284 286 288 290 291 293 291 287 285 286 285 283 282 282 280 278 276 276 277 276 277 278
294 296 298 299 299 297 295 295 298 301 300 296 297 302 306 306 305 311 321 325 321 317 313 312 310 305 298 297 305 317 325 322 323 331 334 335 338 343 351 349 339 341 351 353 1 5 3 6 358 320 296 290 280 271 266 264 268 273 274 275 277 278 280 283 283 285 288 290 294 297 298 298 292 287 286 285 283 284 285 283 280 278 278 279 278 278 280 284
294 296 298 300 299 297 296 295 296 299 298 293 290 292 296 298 301 305 312 318 319 315 310 306 302 295 289 290 299 308 314 310 312 326 333 334 334 334 343 349 335 325 333 339 345 353 354 354 354 338 309 301 295 290 284 275 272 275 275 276 278 281 284 286 286 288 290 292 296 299 301 304 299 290 284 283 284 286 284 281 280 282 284 284 284 286 292 296
293 296 298 300 300 299 297 296 296 298 297 293 286 284 287 290 294 296 300 308 315 314 307 302 298 293 286 286 292 298 302 304 306 318 329 331 328 324 328 337 331 315 313 319 324 334 342 341 338 331 315 308 305 299 295 286 278 275 274 277 280 283 286 288 291 292 293 296 300 300 304 309 301 289 284 287 290 287 282 281 284 289 291 291 294 301 306 306
294 296 298 300 299 299 298 296 296 296 294 290 283 278 279 281 284 287 290 297 307 310 306 300 298 295 287 285 288 290 293 301 308 312 317 320 321 320 320 323 325 313 302 303 307 315 327 328 322 320 313 309 308 303 301 300 296 292 287 286 288 291 295 299 301 301 303 305 304 304 309 311 296 287 288 292 291 285 282 284 289 293 294 297 305 313 312 308
295 297 298 299 298 299 298 297 296 294 292 288 279 272 273 275 278 282 287 292 299 305 306 301 296 294 290 285 283 285 288 297 308 307 301 305 313 320 319 315 316 312 299 293 296 304 312 313 310 308 304 302 303 304 305 304 304 305 303 300 299 301 304 306 307 309 312 312 309 309 313 309 297 294 296 294 288 282 283 287 292 294 297 304 313 315 312 309
295 298 299 299 298 298 298 300 299 295 290 284 276 268 268 272 277 281 285 290 294 298 301 300 297 294 290 283 279 281 286 295 302 301 294 294 302 315 321 312 308 310 305 295 290 294 301 303 301 299 297 296 297 300 303 304 305 307 307 305 303 303 306 307 310 315 317 317 316 313 313 310 305 305 303 293 283 281 286 291 294 296 301 310 316 317 314 313
293 296 298 299 298 297 299 303 305 299 288 279 272 267 266 269 275 280 284 288 290 292 294 297 297 295 291 284 277 276 282 288 296 298 292 285 289 303 317 314 305 304 307 299 289 288 290 292 294 295 293 291 290 296 301 301 302 304 305 304 305 308 310 310 314 318 317 320 320 312 312 313 307 307 302 289 285 288 293 296 296 298 305 314 319 320 318 316
289 292 294 295 295 295 296 302 307 304 291 277 268 265 266 268 272 277 281 283 284 285 289 294 296 295 292 287 281 276 277 281 287 292 288 278 276 289 306 315 307 300 302 300 291 286 283 284 288 291 290 289 289 294 298 296 298 300 302 304 309 316 316 312 315 318 318 322 317 307 310 310 303 303 298 289 290 296 298 297 296 299 309 318 321 321 319 317
286 289 291 292 291 291 292 297 305 304 293 279 269 264 264 267 269 270 274 277 279 280 283 287 291 292 291 288 284 277 274 275 279 283 282 276 269 273 290 307 308 299 298 297 294 289 282 280 284 288 289 290 290 294 294 292 295 296 297 302 308 313 314 311 312 315 318 321 314 310 310 303 299 299 292 289 295 299 298 296 296 302 312 319 319 320 318 313
283 287 289 290 289 288 289 292 299 300 294 283 274 268 265 266 267 266 267 271 274 276 277 279 283 285 285 284 281 276 273 272 274 277 278 275 269 266 274 288 299 300 298 297 297 295 289 284 281 283 287 289 291 294 293 291 292 293 294 297 301 305 308 310 310 312 316 317 315 316 312 302 299 295 290 293 299 301 299 296 297 305 312 315 316 317 315 310
281 284 287 288 287 286 286 288 291 292 291 286 278 272 268 267 267 267 266 268 271 273 275 275 276 278 280 279 277 275 273 270 269 271 275 275 271 268 269 276 283 291 295 297 298 296 294 290 283 280 283 286 287 289 288 288 290 291 290 294 300 303 306 308 309 309 311 312 313 315 311 304 301 295 292 297 302 301 299 296 299 306 310 312 313 313 310 307
279 282 285 287 287 286 285 286 286 284 284 282 278 274 271 269 269 268 267 267 269 271 272 272 272 274 275 275 273 270 269 268 267 267 270 273 273 270 270 273 277 281 286 293 296 296 294 293 288 284 283 283 284 284 283 282 283 282 285 293 300 302 302 303 303 304 305 306 308 309 307 306 303 297 296 300 303 303 300 298 301 306 308 309 310 308 307 306
277 280 283 285 286 286 285 285 283 279 278 278 277 276 274 273 272 271 269 268 270 272 272 271 270 270 270 271 270 267 264 265 265 266 268 270 271 271 270 270 272 276 280 286 291 293 294 294 292 289 285 282 283 285 284 281 279 277 281 288 292 293 295 297 296 295 296 299 301 301 302 304 301 296 296 299 303 304 300 298 301 304 305 307 307 306 307 308